Flight Track Log - Related Links

Times and Time Zones

All times are in EDT time to prevent confusion due to time zone crossing. See the UAL3787 flight status page for this flight to view local times or setup timezone preferences in your user account.

Time Position Orientation Groundspeed Altitude Reporting Facility
EDT Latitude Longitude Course Direction KTS MPH feet Rate Location/Type
05:47AM 36.8806 -76.2150 270° West 169 194 500  Level Washington Center
05:47AM 36.8489 -76.2511 222° Southwest 193 222 2,100 1,947 Climbing Washington Center
05:49AM 36.9696 -76.6402 286° West  Level FlightAware Approximate
05:49AM 36.8444 -76.3342 266° West 256 295 4,200  Level Washington Center
05:50AM 36.9984 -76.7899 282° West  Level FlightAware Approximate
05:50AM 36.8708 -76.4228 290° West 268 308 7,000  Level Washington Center
05:51AM 37.0235 -76.9408 282° West  Level FlightAware Approximate
05:51AM 36.8972 -76.5192 289° West 280 322 9,600  Level Washington Center
05:52AM 37.0500 -77.0905 270° West  Level FlightAware Approximate
05:52AM 36.9256 -76.6208 289° West 295 339 11,100  Level Washington Center
05:53AM 36.9600 -76.7356 291° West 329 379 13,200 1,983 Climbing Washington Center
05:54AM 36.9903 -76.8556 288° West 350 403 15,000 1,869 Climbing Washington Center
05:55AM 37.0242 -76.9811 289° West 372 428 17,000 1,610 Climbing Washington Center
05:56AM 37.0581 -77.1092 288° West 382 440 18,300 1,424 Climbing Washington Center
05:57AM 37.0794 -77.2425 281° West 388 447 19,800 1,590 Climbing Washington Center
05:58AM 37.1025 -77.3808 282° West 396 456 21,400 1,328 Climbing Washington Center
05:59AM 37.1294 -77.5197 284° West 407 468 22,500 1,122 Climbing Washington Center
06:00AM 37.1542 -77.6636 282° West 414 476 23,700 1,109 Climbing Washington Center
06:01AM 37.1828 -77.8078 284° West 419 482 24,700 1,109 Climbing Washington Center
06:02AM 37.2533 -77.9375 304° West 433 498 25,900 1,041 Climbing Washington Center
06:03AM 37.3281 -78.0706 305° West 451 519 26,800 843 Climbing Washington Center
06:04AM 37.3983 -78.1903 306° West 468 539 27,600 814 Climbing Washington Center
06:05AM 37.4747 -78.3239 306° West 473 544 28,400 1,026 Climbing Washington Center
06:06AM 37.5508 -78.4603 305° West 484 557 29,600 1,082 Climbing Washington Center
06:07AM 37.6267 -78.5967 305° West 484 557 30,600 1,100 Climbing Washington Center
06:08AM 37.7083 -78.7469 305° West 479 551 31,800 1,220 Climbing Washington Center
06:09AM 37.7842 -78.8817 305° West 479 551 33,000 1,200 Climbing Washington Center
06:10AM 37.8553 -79.0161 304° West 479 551 34,200 1,091 Climbing Washington Center
06:11AM 37.9250 -79.1353 307° West 474 545 35,200 885 Climbing Washington Center
06:12AM 38.0067 -79.2603 310° West 469 540 36,000 403 Climbing Washington Center
06:13AM 38.0922 -79.3911 310° West 469 540 36,000  Level Washington Center
06:14AM 38.1878 -79.5358 310° West 482 555 36,000  Level Washington Center
06:15AM 38.2750 -79.6728 309° West 494 568 36,000  Level Washington Center
06:16AM 38.3661 -79.8078 311° West 494 568 36,000  Level Washington Center
06:17AM 38.4472 -79.9342 309° West 494 568 36,000  Level Washington Center
06:18AM 38.5361 -80.0694 310° West 499 574 36,000  Level Washington Center
06:19AM 38.6361 -80.2247 310° West 509 586 36,000  Level Indianapolis Center
06:20AM 38.7417 -80.3906 309° West 502 578 36,000  Level Indianapolis Center
06:21AM 38.8311 -80.5256 310° West 496 571 36,000  Level Indianapolis Center
06:22AM 38.9178 -80.6622 309° West 496 571 36,000  Level Indianapolis Center
06:23AM 39.0036 -80.7969 309° West 492 566 36,000  Level Indianapolis Center
06:24AM 39.0703 -80.9478 300° West 493 567 36,000  Level Indianapolis Center
06:25AM 39.1333 -81.1003 298° West 488 562 36,000  Level Indianapolis Center
06:26AM 39.1983 -81.2558 298° West 495 570 36,000  Level Indianapolis Center
06:27AM 39.2617 -81.4139 297° West 500 575 36,000  Level Indianapolis Center
06:28AM 39.3261 -81.5703 298° West 497 572 36,000  Level Indianapolis Center
06:29AM 39.3897 -81.7297 297° West 502 578 36,000  Level Indianapolis Center
06:30AM 39.4553 -81.8875 298° West 501 577 36,000  Level Indianapolis Center
06:31AM 39.5303 -82.0419 302° West 507 583 36,000  Level Indianapolis Center
06:32AM 39.6114 -82.2108 302° West 510 587 36,000  Level Indianapolis Center
06:33AM 39.6869 -82.3681 302° West 509 586 36,000  Level Indianapolis Center
06:34AM 39.7631 -82.5256 302° West 511 588 36,000 -50 Level Indianapolis Center
06:35AM 39.8392 -82.6861 302° West 517 595 35,900  Descending Indianapolis Center
06:36AM 39.9139 -82.8458 301° West 517 595 36,000 48 Climbing Indianapolis Center
06:37AM 39.9897 -83.0053 302° West 517 595 36,000  Level Indianapolis Center
06:38AM 40.0642 -83.1636 302° West 514 592 36,000  Level Indianapolis Center
06:39AM 40.1383 -83.3222 301° West 512 589 36,000  Level Indianapolis Center
06:40AM 40.2119 -83.4797 302° West 509 586 36,000 -49 Level Indianapolis Center
06:41AM 40.2839 -83.6378 301° West 506 582 35,900  Descending Indianapolis Center
06:42AM 40.3547 -83.7936 301° West 497 572 36,000 50 Climbing Indianapolis Center
06:43AM 40.4253 -83.9483 301° West 493 567 36,000  Level Indianapolis Center
06:44AM 40.4961 -84.1036 301° West 493 567 36,000  Level Indianapolis Center
06:45AM 40.5664 -84.2586 301° West 491 565 36,000 -51 Level Indianapolis Center
06:46AM 40.6267 -84.4211 296° West 490 564 35,900 -836 Descending Indianapolis Center
06:47AM 40.6831 -84.5878 294° West 494 568 34,300 -919 Descending Indianapolis Center
06:48AM 40.7383 -84.7517 294° West 487 560 34,000 -153 Descending Indianapolis Center
06:49AM 40.7928 -84.9106 294° West 475 547 34,000 -505 Level Indianapolis Center
06:50AM 40.8200 -84.9975 293° West 478 550 33,200 -1,423 Descending Chicago Center
06:51AM 40.8756 -85.1611 294° West 480 552 31,700 -1,091 Descending Chicago Center
06:52AM 40.9314 -85.3303 294° West 496 571 31,000 -595 Descending Chicago Center
06:53AM 40.9858 -85.4953 294° West 491 565 30,500 -1,240 Descending Chicago Center
06:54AM 41.0403 -85.6597 294° West 486 559 28,500 -1,983 Descending Chicago Center
06:55AM 41.0939 -85.8239 293° West 486 559 26,500 -1,983 Descending Chicago Center
06:56AM 41.1481 -85.9847 294° West 478 550 24,500 -1,983 Descending Chicago Center
06:57AM 41.2128 -86.1308 301° West 462 532 22,500 -1,983 Descending Chicago Center
06:58AM 41.2767 -86.2767 300° West 457 526 20,500 -1,884 Descending Chicago Center
06:59AM 41.3417 -86.4189 301° West 451 519 18,700 -1,537 Descending Chicago Center
07:00AM 41.4025 -86.5592 300° West 441 507 17,400 -1,537 Descending Chicago Center
07:01AM 41.4744 -86.7231 300° West 425 489 15,600 -1,636 Descending Chicago Center
07:02AM 41.5317 -86.8514 301° West 410 472 14,100 -1,475 Descending Chicago Center
07:03AM 41.5869 -86.9808 300° West 406 467 12,600 -1,488 Descending Chicago Center
07:04AM 41.6406 -87.1056 300° West 398 458 11,100 -793 Descending Chicago Center
07:05AM 41.6950 -87.2286 301° West 388 447 11,000 -198 Descending Chicago Center
07:06AM 41.7439 -87.3428 300° West 365 420 10,700 -793 Descending Chicago Center
07:07AM 41.7836 -87.4392 299° West 308 354 9,400 -1,537 Descending Chicago Center
07:08AM 41.8367 -87.5150 313° West 288 331 7,600 -1,785 Descending Chicago Center
07:09AM 41.8917 -87.5897 315° West 285 328 5,800 -1,785 Descending Chicago Center
07:10AM 41.9422 -87.6622 313° West 273 314 4,000 -1,800 Descending Chicago Center

Login

Don't have an account? Register now (free) for customized features, flight alerts, and more!